Find Starlink 31395

NORAD ID: 59180 Int'l Des: 2024-045 Owner: SPXS Country: US Constellation: starlink operational
LEOCIRCULAR

Current View

Loading 3D Globe...

About Starlink 31395

Starlink 31395 (NORAD 59180) is a starlink constellation satellite (v2 mini) launched Mar 11, 2024 by SPXS of US. It operates in LEO, CIRCULAR orbit with a mass of 730.00 kg.

About Starlink 31395

Description loading...

Upcoming Passes

Passes for default location (London). Set your location on the main map for personalized predictions.

Altitude History

Loading altitude history...

Two-Line Element Set

1 59180U 24045C 26173.48567776 -.00000057 00000-0 74500-5 0 9991
2 59180 43.0013 221.1376 0001341 276.7631 83.3068 15.27572872129184
Epoch: Jun 22, 2026 • Age: 27 hours

Current Status

Altitude 482.9 km
Velocity 7.63 km/s
Sub-Earth Point 22.33°N, 111.82°E
Launch Date Mar 11, 2024
Age 2.2 years
Type internet

Technical Details

Classification Payload
Mass 730.00 kg
Dry Mass 700.00 kg
Total Mass 730.00 kg
Length 0.30 m
Diameter 4.10 m
Span 29.00 m
Shape Box + pan
Manufacturer SPXS
Bus Type Starlink V2M
Phase Status In Orbit
Owner/State SPXS/US

Most Searched